Temp
7 4 5 6 6 6 6 6 6 6 6 6 6 6 8 8 7 6 9 10 11 11 11 10 10 10 10 9 9 8 8 7 7 7 8 9 9 8 7 6 6 6 6 7
5 5 6 6 7 7 6 6 7 6 6 6 5 6 7 7 8 9 10 11 11 11 11 10 10 10 9 9 9 9 8 6 6 6 5 5 6 6 6 6 5 5 6 7
6 6 6 7 7 7 6 7 6 6 5 5 4 8 10 9 8 9 10 11 11 12 12 11 11 10 10 9 9 8 7 6 6 5 6 4 5 6 5 5 5 6 6 7
6 6 7 7 7 7 7 6 6 5 5 7 4 11 9 9 8 8 10 11 12 12 12 12 11 10 9 9 9 8 7 6 6 6 6 3 3 3 4 5 5 6 6 7
7 6 7 7 8 7 7 6 5 5 4 3 6 6 10 7 10 10 11 12 12 12 12 12 11 10 10 9 9 8 7 6 5 6 6 5 4 3 5 4 5 5 6 7
6 7 6 7 7 7 5 5 4 3 4 5 5 5 9 8 9 11 10 12 12 12 12 12 11 10 10 9 8 8 7 6 5 6 6 4 3 4 4 4 5 6 6 6
5 6 6 7 7 6 4 1 3 6 5 8 3 4 8 9 8 9 10 11 12 12 12 12 11 11 10 9 9 8 8 7 6 5 6 4 3 3 3 4 5 6 6 6
4 6 7 6 7 6 5 4 4 8 7 6 4 5 9 7 7 8 10 11 12 13 12 12 11 11 10 9 9 9 8 7 7 6 6 5 3 3 3 4 4 5 5 6
5 7 7 6 7 7 6 5 5 3 2 3 4 5 7 7 7 9 10 11 12 13 12 12 11 11 10 10 9 9 9 8 8 6 6 6 4 5 5 5 6 5 5 5
5 5 6 7 7 6 6 5 5 3 7 8 6 4 6 6 8 9 9 11 12 12 12 11 11 11 11 10 9 9 9 8 8 8 7 6 5 5 6 6 6 6 6 6
5 5 6 6 5 5 5 5 4 4 4 7 6 8 4 4 7 8 8 11 12 12 11 11 11 10 11 10 10 9 9 9 8 8 7 6 6 5 6 6 6 6 6 6
5 3 3 6 5 5 5 5 4 5 6 3 4 6 7 6 5 7 9 11 11 11 11 11 11 11 11 11 11 10 9 9 9 8 7 7 6 6 6 6 6 6 6 6
5 4 3 7 5 5 5 4 4 3 3 3 6 9 7 6 7 9 9 10 10 11 11 11 11 11 11 11 11 10 9 9 9 8 8 7 6 6 6 6 6 6 6 6
7 3 5 5 8 6 5 5 3 5 3 4 6 7 11 12 9 8 9 9 10 10 10 12 12 12 12 12 12 11 10 9 8 8 8 7 7 6 6 6 5 5 5 5
5 4 1 3 3 3 5 5 4 3 6 6 7 6 9 7 7 9 8 10 10 12 12 12 12 12 12 12 12 11 10 9 8 8 8 7 6 6 6 6 5 5 5 5
2 4 3 1 3 2 3 4 4 4 5 5 7 7 9 9 9 8 9 9 10 11 11 12 12 12 12 11 11 11 10 10 9 8 8 7 7 7 7 6 5 5 4 4
3 3 3 3 3 2 4 4 4 3 3 5 5 7 7 7 6 8 9 10 10 11 10 10 10 11 11 11 10 10 10 9 9 9 8 8 7 7 6 6 5 4 4 3
1 2 3 3 2 6 10 6 4 4 4 3 4 5 5 6 8 8 10 10 10 9 9 9 10 10 11 11 11 10 10 9 9 8 8 8 7 7 6 5 5 4 4 3
2 2 4 3 2 5 10 5 4 6 8 5 5 5 6 8 7 8 10 9 8 8 8 9 10 10 10 10 10 9 10 9 9 9 8 8 7 6 5 5 5 4 4 4
1 3 4 2 4 7 9 7 6 6 9 6 5 6 6 7 6 7 8 8 8 8 8 9 9 9 9 9 9 9 9 9 9 9 9 8 7 6 6 5 4 4 3 3
1 1 3 4 3 4 6 7 7 8 9 8 7 7 6 5 6 6 6 7 6 6 7 7 7 8 9 9 9 9 9 9 10 9 8 7 6 6 5 4 4 3 3 2
2 1 2 3 3 4 6 6 8 8 7 7 7 6 5 5 5 5 5 5 5 5 6 6 5 6 7 8 8 9 9 10 9 9 8 7 6 5 5 4 4 3 3 2
4 5 3 4 4 6 7 7 8 8 7 7 6 5 5 5 4 4 4 4 4 4 4 4 4 5 6 6 6 7 9 9 8 8 8 7 6 5 5 4 4 3 2 2
5 5 4 4 6 6 8 9 8 7 6 6 5 4 4 4 3 4 4 3 3 3 3 3 4 4 4 5 6 6 7 8 8 7 7 7 6 5 5 4 3 2 2 2
6 5 6 3 6 7 7 7 7 6 6 5 4 4 3 3 3 3 3 3 3 2 3 3 3 3 4 4 5 6 7 7 7 7 7 7 6 5 4 4 4 3 3 2
6 6 6 6 7 6 6 6 6 5 4 4 3 3 4 3 3 3 3 3 3 3 3 3 3 3 4 4 5 5 5 5 5 6 6 6 6 5 4 3 3 2 1 0
Height
1542 1552 1563 1562 1561 1561 1563 1565 1566 1560 1556 1554 1547 1538 1521 1519 1517 1515 1515 1516 1516 1517 1518 1517 1516 1515 1514 1512 1510 1506 1501 1497 1492 1488 1483 1479 1474 1470 1466 1462 1458 1457 1458 1459
1551 1561 1561 1561 1561 1561 1563 1564 1563 1558 1556 1555 1547 1531 1518 1515 1514 1514 1513 1514 1514 1515 1515 1515 1513 1512 1511 1510 1507 1504 1500 1496 1491 1487 1482 1476 1471 1468 1463 1459 1456 1454 1454 1454
1554 1560 1560 1561 1562 1561 1562 1562 1563 1566 1558 1556 1552 1527 1515 1513 1513 1512 1511 1512 1512 1511 1511 1511 1511 1510 1510 1508 1505 1502 1498 1493 1489 1484 1479 1474 1470 1466 1461 1458 1455 1453 1452 1451
1558 1560 1561 1562 1562 1563 1561 1562 1563 1564 1563 1558 1559 1535 1519 1513 1512 1510 1508 1508 1508 1508 1508 1508 1508 1509 1507 1505 1502 1499 1495 1491 1486 1482 1477 1472 1468 1465 1462 1458 1455 1453 1452 1451
1560 1561 1562 1562 1561 1562 1562 1562 1564 1564 1569 1572 1558 1557 1516 1518 1511 1508 1505 1505 1506 1507 1506 1506 1506 1505 1504 1502 1500 1497 1493 1489 1485 1481 1476 1472 1469 1466 1462 1458 1456 1455 1452 1451
1561 1561 1562 1561 1561 1561 1562 1564 1568 1570 1569 1570 1561 1561 1520 1515 1508 1504 1503 1504 1505 1504 1504 1503 1503 1502 1501 1499 1497 1494 1491 1488 1484 1480 1475 1472 1469 1466 1463 1459 1457 1455 1453 1450
1563 1561 1561 1561 1560 1561 1564 1575 1581 1568 1569 1552 1568 1565 1518 1505 1504 1502 1502 1503 1502 1502 1501 1500 1500 1499 1498 1497 1494 1492 1489 1486 1482 1478 1475 1471 1469 1466 1463 1460 1457 1455 1454 1451
1575 1569 1560 1560 1560 1563 1567 1571 1581 1569 1567 1566 1565 1553 1512 1503 1502 1502 1502 1500 1500 1500 1500 1499 1498 1496 1495 1493 1491 1489 1486 1483 1480 1477 1474 1471 1469 1467 1464 1462 1459 1457 1455 1453
1570 1562 1559 1560 1560 1562 1565 1568 1569 1581 1587 1581 1561 1538 1507 1498 1498 1498 1498 1498 1499 1499 1498 1496 1495 1493 1491 1488 1486 1484 1482 1479 1477 1475 1473 1470 1468 1467 1466 1464 1461 1459 1457 1455
1564 1570 1560 1560 1561 1562 1562 1566 1570 1580 1565 1559 1551 1550 1527 1507 1499 1496 1498 1499 1499 1497 1495 1493 1491 1489 1486 1483 1482 1480 1479 1477 1474 1472 1470 1468 1466 1465 1464 1463 1461 1460 1458 1456
1562 1567 1563 1562 1562 1561 1566 1567 1571 1573 1573 1565 1564 1527 1508 1508 1501 1501 1501 1499 1498 1495 1492 1489 1486 1483 1481 1478 1477 1476 1474 1473 1471 1469 1467 1465 1464 1462 1461 1460 1459 1459 1458 1456
1561 1568 1571 1557 1559 1558 1559 1561 1564 1566 1566 1578 1575 1536 1501 1503 1502 1502 1501 1499 1496 1492 1488 1484 1479 1477 1476 1474 1472 1471 1470 1468 1467 1465 1464 1462 1460 1459 1457 1457 1456 1455 1455 1454
1559 1566 1575 1558 1563 1560 1560 1559 1559 1564 1567 1569 1562 1522 1501 1501 1501 1500 1498 1494 1490 1485 1482 1479 1476 1474 1473 1471 1468 1466 1465 1464 1463 1461 1460 1459 1458 1457 1455 1454 1453 1452 1451 1450
1555 1564 1561 1564 1549 1554 1556 1554 1556 1555 1564 1554 1534 1516 1497 1494 1499 1496 1493 1490 1485 1481 1477 1474 1473 1471 1469 1466 1464 1461 1460 1460 1459 1458 1457 1456 1454 1453 1452 1451 1450 1449 1448 1447
1555 1560 1564 1556 1553 1552 1547 1545 1548 1550 1540 1540 1514 1517 1495 1500 1501 1496 1493 1488 1483 1478 1474 1472 1470 1467 1465 1462 1459 1455 1454 1454 1454 1454 1454 1453 1452 1451 1449 1448 1447 1446 1445 1444
1556 1558 1560 1559 1548 1550 1544 1533 1534 1535 1533 1529 1516 1509 1498 1494 1495 1494 1490 1486 1481 1477 1474 1470 1466 1462 1460 1458 1454 1450 1446 1444 1444 1444 1445 1445 1445 1445 1445 1444 1443 1442 1441 1440
1557 1559 1561 1553 1547 1546 1532 1513 1518 1522 1520 1515 1521 1496 1495 1493 1492 1489 1486 1483 1480 1477 1473 1467 1463 1457 1454 1452 1448 1445 1442 1440 1437 1436 1437 1437 1437 1437 1438 1438 1438 1437 1437 1438
1557 1559 1560 1557 1551 1535 1503 1505 1507 1511 1509 1507 1501 1496 1495 1493 1490 1489 1485 1480 1478 1475 1470 1465 1459 1454 1450 1446 1443 1439 1437 1435 1433 1432 1432 1431 1431 1431 1430 1430 1432 1433 1433 1433
1549 1554 1555 1558 1562 1525 1495 1506 1508 1505 1497 1496 1498 1495 1495 1494 1489 1484 1483 1481 1476 1470 1465 1459 1454 1448 1443 1440 1438 1433 1430 1428 1425 1424 1425 1426 1427 1427 1427 1427 1426 1425 1426 1428
1548 1548 1550 1561 1553 1529 1499 1501 1501 1502 1499 1498 1499 1497 1494 1490 1487 1479 1476 1471 1465 1461 1456 1449 1444 1440 1436 1434 1430 1426 1423 1421 1418 1417 1416 1417 1418 1418 1419 1420 1420 1421 1421 1421
1555 1557 1550 1550 1551 1526 1500 1500 1501 1502 1502 1497 1495 1493 1490 1489 1484 1472 1466 1458 1453 1447 1442 1439 1436 1430 1426 1424 1421 1417 1416 1413 1413 1411 1410 1410 1411 1413 1414 1415 1415 1416 1415 1416
1543 1549 1550 1550 1552 1535 1499 1501 1501 1497 1493 1493 1492 1488 1484 1479 1471 1464 1457 1451 1445 1439 1433 1429 1426 1422 1418 1415 1411 1407 1403 1405 1405 1404 1402 1402 1405 1407 1409 1410 1410 1411 1410 1410
1534 1521 1528 1526 1513 1498 1498 1497 1496 1495 1492 1490 1486 1481 1476 1469 1462 1455 1447 1441 1436 1431 1426 1422 1417 1412 1409 1406 1404 1399 1395 1395 1395 1394 1393 1393 1394 1396 1398 1400 1402 1405 1407 1407
1517 1513 1514 1511 1497 1495 1494 1493 1492 1491 1487 1483 1480 1475 1470 1463 1457 1448 1441 1433 1428 1423 1417 1414 1409 1403 1399 1396 1393 1390 1389 1386 1385 1384 1384 1383 1383 1386 1388 1391 1393 1395 1396 1399
1512 1510 1501 1499 1494 1490 1489 1489 1488 1483 1479 1475 1472 1468 1463 1457 1450 1445 1437 1429 1422 1416 1411 1407 1402 1397 1391 1388 1383 1380 1378 1376 1375 1376 1375 1375 1376 1377 1379 1381 1382 1385 1390 1393
1505 1497 1497 1486 1487 1487 1485 1483 1481 1476 1472 1469 1465 1460 1454 1450 1444 1438 1431 1425 1419 1412 1406 1400 1396 1391 1386 1381 1376 1372 1370 1369 1369 1367 1368 1369 1368 1369 1369 1372 1375 1378 1381 1384
Wind_Speed
7 7 3 1 3 3 4 1 3 4 3 5 4 16 22 23 15 16 16 12 9 8 6 8 8 10 14 17 19 22 26 24 22 24 25 23 23 23 21 20 20 22 24 24
6 4 2 1 2 2 2 0 3 5 3 3 6 21 15 7 5 6 8 9 10 10 9 8 9 12 14 17 19 20 22 20 20 21 21 23 19 20 21 22 18 13 14 16
5 3 3 1 1 2 0 1 1 4 7 2 9 7 4 1 5 9 12 13 14 13 12 10 11 13 15 17 18 18 19 19 18 20 20 19 18 20 21 20 15 12 13 11
5 1 1 1 1 2 3 2 0 4 5 3 5 4 5 3 6 5 12 12 12 13 14 13 12 13 15 16 18 18 18 18 18 19 18 18 20 21 19 14 11 10 9 11
1 4 1 1 1 2 2 2 2 1 1 3 0 1 7 3 6 6 7 5 6 7 9 11 12 14 15 16 17 17 16 18 17 18 16 16 17 16 15 10 9 10 9 10
2 1 2 1 1 0 2 3 5 3 1 2 1 2 6 4 6 3 4 5 8 10 11 12 13 15 15 16 16 16 15 16 16 16 15 15 13 14 15 11 4 8 6 7
4 1 1 1 2 2 6 5 3 5 3 3 2 1 10 5 5 3 4 8 9 9 10 12 13 15 16 15 15 15 14 13 15 14 13 13 11 12 13 12 8 8 6 5
3 5 1 1 2 4 2 4 4 4 2 5 2 6 6 4 6 12 13 10 11 6 7 10 13 16 16 15 15 14 13 13 12 12 11 10 9 9 10 11 11 10 5 3
2 3 1 2 2 3 2 2 2 5 1 2 3 7 10 5 5 9 15 11 8 7 9 11 15 18 16 16 15 14 12 11 11 10 9 10 7 4 7 8 8 7 6 6
4 3 0 1 2 4 1 5 3 2 1 4 5 5 5 5 4 2 4 7 9 11 14 17 21 23 19 18 17 15 13 11 10 9 8 7 7 4 3 5 6 5 4 5
3 3 3 1 5 6 2 0 3 3 2 2 3 7 6 5 3 4 7 11 16 22 26 30 32 27 22 20 18 16 14 12 11 10 8 6 6 5 4 4 4 5 4 5
2 3 3 6 2 1 2 4 4 3 3 1 1 7 2 5 5 5 10 18 30 31 31 30 24 18 14 16 16 17 16 14 13 12 10 7 6 6 6 4 7 8 8 9
5 0 4 4 4 3 3 4 3 3 2 6 4 6 1 2 3 7 17 34 35 33 29 25 19 15 16 18 18 18 18 16 15 14 12 11 9 8 7 7 8 9 9 9
7 3 5 6 3 3 4 5 6 5 3 3 10 10 18 17 14 22 32 33 35 31 24 19 16 15 14 18 20 20 21 20 18 17 15 13 11 10 10 9 9 9 9 9
4 4 4 6 10 6 11 14 10 13 11 8 1 10 15 10 11 25 30 31 27 28 29 24 21 19 16 19 20 20 21 22 20 20 18 15 14 13 12 11 10 9 8 8
2 2 1 5 9 6 9 16 17 18 18 19 25 28 23 34 20 20 27 26 28 29 32 31 30 22 19 21 22 22 21 22 23 22 20 19 18 16 14 13 12 11 10 9
4 2 2 5 3 9 9 8 11 5 4 16 12 13 8 11 10 16 25 30 25 27 35 35 33 30 18 21 23 23 22 21 26 25 23 23 21 19 17 16 14 13 12 11
5 4 2 4 7 2 3 1 8 10 6 15 10 8 11 18 29 28 25 20 24 29 35 39 41 31 22 23 26 26 23 22 26 29 26 26 25 22 20 19 16 15 13 12
4 4 2 2 2 10 3 1 5 4 6 7 16 14 18 22 21 20 15 21 29 34 41 46 41 36 30 32 31 30 27 25 25 29 31 29 27 25 23 21 18 17 15 14
4 2 5 3 2 5 1 1 2 2 3 7 3 6 10 17 9 11 31 41 46 47 47 45 39 31 28 28 32 33 30 27 29 30 30 30 28 28 26 23 21 19 16 15
3 1 10 8 4 9 8 6 3 2 2 9 15 18 18 6 18 38 42 48 48 48 46 40 35 33 32 33 31 31 31 32 28 27 29 31 30 29 27 24 24 21 18 17
6 6 5 5 3 9 6 4 4 1 11 24 20 22 25 34 40 41 41 42 45 46 46 45 43 38 35 32 31 29 31 29 27 26 27 28 30 29 28 27 25 23 21 19
3 6 5 11 8 5 3 11 16 25 23 23 31 35 38 39 41 43 43 42 39 40 41 44 42 38 36 35 31 28 27 27 27 26 27 26 29 31 29 29 28 27 24 22
4 7 4 2 6 15 22 32 30 27 30 39 38 37 35 37 40 44 44 43 40 38 38 40 39 40 39 34 33 31 29 27 27 26 26 27 29 31 32 31 30 28 27 25
6 3 9 7 14 26 20 17 38 39 41 45 38 36 37 34 36 36 38 40 39 37 37 35 36 38 38 34 32 32 30 27 26 26 26 27 28 31 34 33 32 30 28 24
13 19 13 15 27 23 24 34 34 41 39 33 36 33 30 28 29 31 34 35 34 35 35 35 35 36 36 33 31 26 21 20 23 25 26 29 31 32 34 34 33 31 27 25
Wind_Direction
24 64 79 100 41 103 107 95 278 264 297 321 259 281 288 298 279 268 269 265 254 257 269 293 295 309 320 326 325 328 333 334 334 334 338 340 341 341 341 329 299 280 266 266
30 81 195 188 92 102 94 27 294 275 279 279 313 293 290 276 262 245 256 257 255 257 260 289 300 308 318 322 324 328 333 336 335 334 336 339 352 356 353 350 335 308 280 264
111 147 145 141 60 38 321 191 314 254 320 233 313 285 312 256 261 262 256 257 254 260 269 281 296 303 313 318 323 325 332 336 338 341 346 353 355 356 356 351 337 317 288 262
82 118 116 87 290 111 325 190 312 307 5 295 11 287 290 278 292 265 263 251 266 271 274 283 297 299 306 316 322 325 333 335 341 346 352 354 353 349 347 343 356 355 318 305
198 147 161 224 260 182 264 21 332 3 81 348 357 53 270 359 269 251 243 256 283 298 294 291 291 296 308 313 318 320 329 341 339 345 348 348 354 351 357 353 359 345 347 330
85 197 185 246 13 146 54 62 39 57 2 7 292 115 276 200 207 199 241 261 296 302 296 296 297 297 304 306 314 321 330 336 337 343 350 353 352 353 353 355 319 340 337 346
347 340 289 200 52 26 56 52 337 354 7 232 303 333 250 263 241 227 258 303 312 302 304 307 307 301 302 305 310 317 323 329 341 338 349 356 354 351 355 358 340 333 352 7
87 323 190 173 173 176 79 130 141 240 312 289 12 237 251 219 291 267 271 287 299 293 317 334 323 309 305 303 304 312 319 327 337 343 344 356 356 4 7 11 8 352 337 344
138 264 281 212 172 128 156 53 162 100 345 317 248 279 286 282 278 261 263 283 278 278 303 317 329 330 305 297 296 300 309 315 323 336 335 340 353 2 33 15 17 1 339 327
182 338 218 2 104 42 190 152 56 25 1 298 285 281 243 318 286 243 245 270 294 292 295 309 323 319 310 297 286 290 298 303 308 312 319 315 324 339 16 0 356 359 337 314
133 115 282 75 198 183 134 176 61 119 146 201 305 274 214 229 291 303 302 301 301 303 304 309 308 305 300 297 278 278 286 293 295 296 299 298 290 296 292 293 297 306 303 284
170 144 259 214 131 104 177 190 163 131 215 189 150 274 274 256 280 297 302 313 316 315 314 316 315 304 299 306 283 271 277 281 283 282 281 278 273 269 265 263 283 278 277 275
182 126 337 353 14 9 237 205 159 112 95 201 163 260 166 279 291 294 302 319 327 327 324 323 320 314 310 310 300 274 270 274 273 273 272 271 269 269 266 262 262 268 278 279
158 154 193 205 192 143 217 202 198 171 175 197 230 277 275 293 317 315 315 316 326 329 329 323 321 322 325 326 314 289 269 269 269 269 267 265 266 268 269 269 267 264 264 269
134 229 191 260 260 237 245 242 209 208 207 217 268 232 272 282 296 302 301 315 332 350 351 340 313 307 308 324 320 303 277 261 265 267 267 268 265 267 270 272 272 271 268 263
28 268 96 273 271 258 264 248 232 232 237 247 259 275 284 279 290 296 315 325 330 341 341 337 332 300 296 318 322 312 289 260 254 258 260 258 257 257 260 263 266 267 266 265
158 174 26 271 319 300 280 249 186 192 221 222 230 239 280 297 289 307 320 319 322 333 331 330 326 317 285 311 322 318 304 272 252 254 254 252 251 251 251 250 253 256 259 263
141 136 165 286 339 288 272 124 173 199 228 214 255 271 280 280 296 306 316 309 321 326 332 329 330 317 287 303 315 313 306 287 263 255 256 254 250 249 244 244 248 252 256 258
162 139 284 271 275 293 314 144 137 175 295 219 232 265 282 308 306 309 331 332 324 320 321 321 321 315 291 292 304 301 299 292 273 262 257 256 254 251 248 248 245 245 249 254
139 127 176 152 223 258 296 336 150 166 358 38 200 282 276 315 315 317 318 318 313 313 315 314 312 300 298 309 304 293 293 290 285 276 265 255 252 249 247 246 245 248 250 249
104 146 221 228 266 286 266 259 296 4 272 350 335 319 311 282 290 299 306 308 310 312 315 313 313 305 291 297 303 294 288 284 294 290 274 258 250 250 249 246 245 246 247 250
173 157 193 184 223 265 221 71 174 273 331 324 323 322 319 312 308 307 307 306 309 309 312 312 312 307 302 302 302 291 283 287 285 286 279 264 251 251 249 247 246 244 244 245
249 203 186 192 214 245 281 253 302 305 308 320 323 321 319 312 310 311 311 309 306 306 306 309 313 313 310 305 300 293 291 288 278 276 277 266 250 246 247 245 244 244 245 246
247 204 228 144 247 262 305 309 311 321 317 320 316 314 315 307 310 313 316 314 311 309 307 313 313 311 309 308 303 297 293 288 273 271 271 265 253 246 246 243 242 242 242 243
220 212 253 259 272 284 291 297 307 307 309 314 316 317 315 316 319 323 322 325 325 322 321 320 317 316 313 312 305 301 292 278 267 271 266 263 259 249 246 244 244 244 247 248
222 249 257 265 277 286 288 292 299 304 309 313 313 316 320 324 325 331 331 332 331 328 327 323 321 319 318 316 311 306 299 285 278 270 267 268 263 253 245 242 241 239 238 238